This demonstration page uses our WeatherBlox Daily Observations layout. Learn more.

Left ArrowRight Arrow

36.17497, -115.13722

Hourly Observations for September 12, 2015

Temp ( °F °C ) Dew Point ( °F °C ) Humidity (%) Winds ( mph kmh ) Pressure ( in mb ) Visibility ( mi km ) Precip ( " mm )
12:53 am 00:53 Clear 84 28.9 33 0.6 16 16 N 7 11 29.88 1012 10 16 N/A
1:53 am 01:53 Clear 80 26.7 34 1.1 19 19 N 3 6 29.88 1012 10 16 N/A
2:53 am 02:53 Clear 79 26.1 38 3.3 23 23 NW 5 7 29.88 1012 10 16 N/A
3:53 am 03:53 Clear 77 25 34 1.1 21 21 N 7 11 29.89 1012 10 16 N/A
4:53 am 04:53 Clear 77 25 31 -0.6 18 18 N 7 11 29.90 1012 10 16 N/A
5:53 am 05:53 Clear 77 25 36 2.2 23 23 N 7 11 29.91 1013 10 16 N/A
6:53 am 06:53 Sunny 77 25 35 1.7 22 22 NNW 8 13 29.94 1014 10 16 N/A
7:53 am 07:53 Sunny 81 27.2 42 5.6 25 25 N 5 7 29.96 1015 10 16 N/A
8:53 am 08:53 Sunny 86 30 49 9.4 28 28 E 5 7 29.97 1015 10 16 N/A
9:53 am 09:53 Sunny 89 31.7 47 8.3 23 23 SE 6 9 29.97 1015 10 16 N/A
10:53 am 10:53 Sunny 93 33.9 42 5.6 17 17 ESE 10 17 29.97 1015 10 16 N/A
11:53 am 11:53 Sunny 94 34.4 44 6.7 18 18 E 3 6 29.95 1014 10 16 N/A
12:53 pm 12:53 Sunny 98 36.7 42 5.6 15 15 SE 8 13 29.92 1013 10 16 N/A
1:53 pm 13:53 Sunny 100 37.8 46 7.8 16 16 SSE 10 17 29.88 1012 10 16 N/A
2:53 pm 14:53 Sunny 100 37.8 45 7.2 15 15 SE 7 11 29.84 1011 10 16 N/A
3:53 pm 15:53 Sunny 101 38.3 45 7.2 15 15 ENE 3 6 29.82 1010 10 16 N/A
4:53 pm 16:53 Sunny 101 38.3 47 8.3 16 16 SE 6 9 29.80 1009 10 16 N/A
5:53 pm 17:53 Sunny 100 37.8 47 8.3 16 16 S 13 20 29.80 1009 10 16 N/A
6:53 pm 18:53 Sunny 97 36.1 47 8.3 18 18 W 8 13 29.81 1010 10 16 N/A
7:53 pm 19:53 Clear 95 35 46 7.8 19 19 S 5 7 29.82 1010 10 16 N/A
8:53 pm 20:53 Clear 92 33.3 47 8.3 21 21 S 8 13 29.83 1010 10 16 N/A
9:53 pm 21:53 Clear 90 32.2 47 8.3 23 23 S 9 15 29.84 1011 10 16 N/A
10:53 pm 22:53 Clear 89 31.7 48 8.9 24 24 S 5 7 29.84 1011 10 16 N/A
11:53 pm 23:53 Clear 86 30 48 8.9 27 27 N N/A 29.84 1011 10 16 N/A

Powered by AerisWeather